Location: Bergnershof
(48.9468°N, 10.9431°E)
Time: 00:39:26
(UTC+00:00)

Cosmos 1844 Rocket - Pass Details

Date: 22 June 2021
Orbit: 823 x 846 km, 71.0° (Epoch: 30 July)

Event Time Altitude Azimuth Distance (km) Brightness Sun altitude
Rises 20:34:59 0° 324° (NW) 3,414 8.3 -9.0°
Reaches altitude 10° 20:37:40 10° 315° (NW) 2,476 6.8 -9.2°
Maximum altitude 20:42:35 31° 255° (WSW) 1,449 4.2 -9.7°
Drops below altitude 10° 20:47:28 10° 195° (SSW) 2,462 4.8 -10.2°
Enters shadow 20:49:10 - 188° (S) 3,043 5.2 -10.3°
